This demonstration page uses our WeatherBlox Daily Observations layout. Learn more.

Left ArrowRight Arrow

Hourly Observations for June 30, 2016

Temp ( °F °C ) Dew Point ( °F °C ) Humidity (%) Winds ( mph kmh ) Pressure ( in mb ) Visibility ( mi km ) Precip ( " mm )
12:54 am 00:54 Clear 75 23.9 68 20 79 79 SSE 3 6 29.96 1015 10 16.0934 0 0
1:54 am 01:54 Clear 74 23.3 68 20 82 82 Calm 29.93 1014 10 16.0934 0 0
2:54 am 02:54 Clear 72 22.2 68 20 87 87 S 5 7 29.91 1013 10 16.0934 0 0
3:54 am 03:54 Mostly Cloudy 73 22.8 68 20 84 84 NW 6 9 29.93 1014 10 16.0934 0 0
4:54 am 04:54 Clear 71 21.7 67 19.4 87 87 Calm 29.91 1013 10 16.0934 0 0
5:54 am 05:54 Clear 72 22.2 68 20 87 87 NW 5 7 29.9 1013 10 16.0934 0 0
6:54 am 06:54 Sunny 71 21.7 68 20 90 90 NNW 7 11 29.92 1013 9 14.48406 0 0
7:54 am 07:54 Mostly Cloudy 74 23.3 64 17.8 71 71 NW 12 19 29.95 1014 10 16.0934 0 0
8:54 am 08:54 Mostly Cloudy 76 24.4 64 17.8 67 67 NW 8 13 29.95 1014 10 16.0934 0 0
9:54 am 09:54 Sunny 79 26.1 64 17.8 60 60 N 9 15 29.95 1014 10 16.0934 0 0
10:54 am 10:54 Sunny 81 27.2 63 17.2 54 54 N 9 15 29.95 1014 10 16.0934 0 0
11:54 am 11:54 Sunny 86 30 60 15.6 42 42 NNE 7 11 29.95 1014 10 16.0934 0 0
12:54 pm 12:54 Sunny 88 31.1 58 14.4 36 36 N 10 17 29.94 1014 10 16.0934 0 0
1:54 pm 13:54 Sunny 88 31.1 61 16.1 40 40 N 13 20 29.93 1014 10 16.0934 0 0
2:54 pm 14:54 Mostly Sunny 90 32.2 63 17.2 41 41 NNW 13 20 29.93 1014 10 16.0934 0 0
3:54 pm 15:54 Sunny 88 31.1 61 16.1 40 40 N 13 20 29.94 1014 10 16.0934 0 0
4:54 pm 16:54 Mostly Cloudy 89 31.7 65 18.3 45 45 NNE 16 26 29.95 1014 10 16.0934 0 0
5:54 pm 17:54 Sunny 87 30.6 59 15 39 39 NNE 15 24 29.95 1014 10 16.0934 0 0
6:54 pm 18:54 Sunny 85 29.4 62 16.7 46 46 NNE 15 24 29.94 1014 10 16.0934 0 0
7:54 pm 19:54 Sunny 82 27.8 61 16.1 49 49 NNE 15 24 29.96 1015 10 16.0934 0 0
8:54 pm 20:54 Sunny 79 26.1 62 16.7 56 56 NNE 10 17 29.98 1015 10 16.0934 0 0
9:54 pm 21:54 Clear 74 23.3 62 16.7 67 67 NNE 8 13 30.01 1016 10 16.0934 0 0
10:54 pm 22:54 Clear 71 21.7 61 16.1 71 71 N 8 13 30.04 1017 10 16.0934 0 0
11:54 pm 23:54 Clear 68 20 61 16.1 78 78 NNE 7 11 30.05 1018 10 16.0934 0 0

Powered by AerisWeather